Weather observations for the past three days for
Duncan, Halliburton Field Airport
Imperial (Metric)
Date Time (cdt) Wind (mph) Vis. (mi.) Weather Sky Cond. Temperature (ºF) Relative Humidity Wind Chill (°F) Heat Index (°F) Pressure Precipitation (in)
Air Dwpt 6 hour altimeter (in) sea level (mb) 1 hr 3 hr 6 hr
Max. Min.
13 15:35 S 12 G 18 10.00 Fair CLR 91.2 70 50% 97 29.96 0.0
13 15:15 S 15 5.00 Fair with Haze CLR 91.2 71.4 52% 98 29.96 0.0
13 14:55 SE 14 G 20 10.00 Partly Cloudy SCT042 90.9 71.2 53% 98 29.97 0.0
13 14:35 S 12 G 17 10.00 Partly Cloudy SCT042 90 70.3 53% 96 29.97 0.0
13 14:15 S 12 G 17 10.00 Partly Cloudy SCT040 89.6 71.2 55% 96 29.98 0.0
13 13:55 SE 14 10.00 Mostly Cloudy BKN040 89.1 71.6 56% 96 29.99 0.0
13 13:35 S 9 10.00 Mostly Cloudy BKN040 89.1 72.1 57% 96 30 0.0
13 13:15 S 10 10.00 Mostly Cloudy BKN038 88.7 71.6 57% 95 30 0.0
13 12:55 S 9 10.00 Partly Cloudy SCT036 87.8 70.9 88.7 69.1 57% 94 30 0.0
13 12:35 S 12 7.00 Partly Cloudy SCT034 88 70.7 57% 94 30 0.0
13 12:15 S 9 10.00 Partly Cloudy SCT029 86.9 72 61% 93 30.01 0.0
13 11:55 SW 7 G 17 10.00 Partly Cloudy SCT029 86 72.5 64% 93 30.01 0.0
13 11:35 S 10 10.00 Partly Cloudy SCT027 85.5 72.1 65% 92 30.01 0.0
13 11:15 S 9 10.00 Partly Cloudy SCT025 84.9 72.5 66% 91 30.01 0.0
13 10:55 S 10 10.00 Partly Cloudy SCT023 84 72.3 68% 90 30.01 0.0
13 10:15 S 14 3.00 Fair with Haze CLR 81.9 72 72% 87 30 0.0
13 09:55 S 10 7.00 Fair CLR 81.3 72.1 74% 86 30 0.0
13 09:35 S 14 7.00 Thunderstorm CLR 79.7 72.3 78% 83 30.01 0.0
13 09:15 SW 10 7.00 Fair CLR 78.6 71.8 80% 81 30.01 0.0
13 08:55 S 9 7.00 Fair CLR 77.7 71.8 82% 80 30 0.0
13 08:35 S 8 4.00 Fair with Haze CLR 76.1 71.4 86% 77 30 0.0
13 08:15 S 8 3.00 Fog/Mist CLR 74.3 70.7 89% 30 0.0
13 07:55 S 7 0.75 Fog/Mist VV005 72.3 70.9 95% 29.99 0.0
13 07:35 S 6 0.15 Fog VV000 71.1 70.3 98% 29.97 0.0
13 07:15 S 5 0.15 Fog VV000 69.8 0 0% 29.97 0.0
13 06:55 SE 5 0.15 Fog VV000 69.8 0 73.9 68.5 0% 29.97 0.0
13 06:35 SE 3 0.15 Fog VV000 68 0 0% 29.97 0.0
13 06:15 SE 5 0.25 Fog VV002 68 0 0% 29.96 0.0
13 05:55 SE 5 0.50 Fog VV005 69.8 0 0% 29.96 0.0
13 05:35 SE 3 0.25 Fog VV002 69.8 69.8 100% 29.96 0.0
13 05:15 SE 3 1.50 Fog/Mist VV007 69.8 69.4 99% 29.95 0.0
13 04:55 S 3 5.00 Fog/Mist CLR 70 69.3 98% 29.95 0.0
13 04:35 S 5 2.00 Fog/Mist CLR 70.3 69.3 96% 29.95 0.0
13 04:15 S 5 10.00 Fair CLR 70.7 69.3 95% 29.95 0.0
13 03:55 S 5 7.00 Fog/Mist CLR 70.9 69.3 95% 29.94 0.0
13 03:35 S 6 7.00 Fair CLR 71.6 69.3 92% 29.94 0.0
13 03:15 S 7 7.00 Fair CLR 72.1 69.3 91% 29.94 0.0
13 02:55 S 7 10.00 Fair CLR 72.5 69.1 89% 29.94 0.0
13 02:35 S 8 10.00 Fair CLR 73.2 69.1 87% 29.95 0.0
13 02:15 S 8 10.00 Fair CLR 73.2 68.9 86% 29.95 0.0
13 01:55 SE 7 10.00 Fair CLR 73 68.5 86% 29.95 0.0
13 01:35 SE 7 10.00 Fair CLR 73.2 68.5 85% 29.96 0.0
13 01:15 SE 6 10.00 Fair CLR 73.6 68.4 84% 29.96 0.0
13 00:55 SE 6 10.00 Fair CLR 74.1 68.2 87.4 73.9 82% 29.97 0.0
13 00:35 SE 6 10.00 Fair CLR 74.5 68 80% 29.97 0.0
13 00:15 SE 7 10.00 Fair CLR 75.2 68 78% 76 29.97 0.0
12 23:55 SE 7 10.00 Fair CLR 75.7 68.4 78% 77 29.97 0.0
12 23:35 SE 7 10.00 Fair CLR 76.1 68.5 78% 77 29.97 0.0
12 23:15 SE 7 10.00 Fair CLR 75.4 69.3 81% 76 29.97 0.0
12 22:55 SE 6 10.00 Fair CLR 76.1 68.7 78% 77 29.97 0.0
12 22:35 SE 7 10.00 Fair CLR 77.5 68.7 74% 79 29.96 0.0
12 22:15 SE 8 10.00 Fair CLR 77.9 69.1 74% 80 29.95 0.0
12 21:55 SE 6 10.00 Fair CLR 78.1 69.3 74% 80 29.95 0.0
12 21:35 SE 8 10.00 Fair CLR 79 69.3 72% 82 29.94 0.0
12 21:15 SE 8 10.00 Fair CLR 79.3 69.6 72% 82 29.94 0.0
12 20:55 SE 7 10.00 Fair CLR 80.1 69.8 71% 83 29.93 0.0
12 20:35 SE 7 10.00 Fair CLR 81.5 70 68% 85 29.93 0.0
12 20:15 SE 8 10.00 Fair CLR 83.3 69.6 63% 87 29.93 0.0
12 19:55 SE 8 10.00 Fair CLR 84.7 69.4 60% 89 29.93 0.0
12 19:35 SE 7 10.00 Fair CLR 85.8 69.4 58% 90 29.93 0.0
12 19:15 SE 9 10.00 Fair CLR 86.9 68.2 54% 91 29.93 0.0
12 18:55 S 9 10.00 Fair CLR 87.4 68 89.2 84 53% 91 29.93 0.0
12 18:35 S 8 10.00 Partly Cloudy SCT049 87.6 68 52% 91 29.93 0.0
12 18:15 SE 10 10.00 Partly Cloudy SCT049 88 67.5 51% 91 29.93 0.0
12 17:55 SE 13 10.00 Partly Cloudy SCT049 88.5 68 51% 92 29.94 0.0
12 17:35 S 9 10.00 Partly Cloudy SCT049 88 66.9 50% 91 29.94 0.0
12 17:15 S 10 10.00 Partly Cloudy SCT049 88.3 68 51% 92 29.95 0.0
12 16:55 SE 13 G 18 10.00 Partly Cloudy SCT047 89.1 67.8 50% 93 29.95 0.0
12 16:35 S 17 10.00 Partly Cloudy SCT047 88.5 67.8 50% 92 29.96 0.0
12 16:15 S 12 10.00 Partly Cloudy SCT047 87.3 66.7 51% 90 29.97 0.0
12 15:55 S 9 G 16 10.00 Partly Cloudy SCT047 88 68.4 52% 92 29.98 0.0
12 15:35 S 9 10.00 Partly Cloudy SCT045 87.6 68 52% 91 29.99 0.0
12 15:15 S 14 G 17 10.00 Mostly Cloudy BKN045 86.9 68 53% 90 29.99 0.0
12 14:55 S 13 7.00 Mostly Cloudy BKN043 BKN049 86.4 67.8 54% 90 30 0.0
12 14:35 S 12 10.00 Mostly Cloudy BKN041 86.4 67.6 54% 90 30 0.0
12 13:35 SE 10 10.00 Partly Cloudy SCT037 84.9 68 57% 88 30.02 0.0
12 13:15 SE 7 10.00 Fair CLR 85.3 68 56% 89 30.02 0.0
12 12:55 S 8 7.00 Partly Cloudy SCT035 84.6 69.3 85.3 66.9 60% 89 30.03 0.0
12 12:35 S 12 10.00 Fair CLR 84 68.5 60% 87 30.03 0.0
12 12:15 S 7 10.00 Fair CLR 83.7 68.5 60% 87 30.04 0.0
12 11:55 S 5 0.15 Sky Obscured with Haze VV000 82.8 68.5 62% 86 30.04 0.0
12 11:35 S 7 0.15 Sky Obscured with Haze VV000 81.5 66.9 61% 84 30.04 0.0
12 11:15 S 5 0.15 Sky Obscured with Haze VV000 81 66.6 62% 83 30.05 0.0
12 10:55 SE 5 0.15 Sky Obscured with Haze VV000 80.2 66.2 62% 82 30.05 0.0
12 10:35 S 3 0.15 Sky Obscured with Haze VV000 80.1 66.6 64% 82 30.05 0.0
12 10:15 SE 3 0.15 Sky Obscured with Haze VV000 78.4 64.8 63% 80 30.05 0.0
12 09:55 S 5 0.15 Sky Obscured with Haze VV000 77.5 64.8 65% 79 30.05 0.0
12 09:35 S 8 0.15 Sky Obscured with Haze VV000 76.8 64 65% 79 30.06 0.0
12 09:15 S 6 0.15 Sky Obscured with Haze VV000 75.6 64.8 69% 77 30.06 0.0
12 08:55 S 5 0.15 Sky Obscured with Haze VV000 74.5 64.6 71% 30.06 0.0
12 08:35 SE 5 0.15 Sky Obscured with Haze VV000 73.4 65.3 76% 30.05 0.0
12 08:15 Calm 0.15 Sky Obscured with Haze VV000 72.5 64.8 77% 30.05 0.0
12 07:55 Calm 0.15 Sky Obscured with Haze VV000 72 65.5 80% 30.05 0.0
12 07:35 Calm 0.25 Fog BKN050 70.3 65.8 86% 30.04 0.0
12 07:15 Calm 1.25 Fog/Mist SCT050 68.5 65.1 89% 30.04 0.0
12 06:55 Calm 0.75 Fog/Mist VV005 66.9 64 70.5 65.8 91% 30.04 0.0
12 06:35 Calm 0.15 Fog VV000 66.6 64 92% 30.03 0.0
12 06:15 Calm 0.15 Fog VV000 66.7 64 91% 30.02 0.0
12 05:55 Calm 2.00 Fog/Mist CLR 66.6 64 92% 30.02 0.0
12 05:35 E 3 0.50 Fog VV005 66.9 64.6 92% 30.01 0.0
12 05:15 Calm 4.00 Fog/Mist CLR 66.7 64.9 94% 30.01 0.0
12 04:55 E 5 0.50 Fog VV005 66.9 65.3 95% 30 0.0
12 04:35 E 6 0.75 Fog/Mist VV005 67.5 65.7 94% 30 0.0
12 04:15 E 6 0.75 Fog/Mist VV005 67.3 66 96% 30 0.0
12 03:55 E 7 5.00 Fog/Mist CLR 67.8 66.7 96% 29.99 0.0
12 03:35 E 7 4.00 Fog/Mist CLR 68 67.3 98% 29.99 0.0
12 03:15 E 6 3.50 Fog/Mist CLR 68.5 67.5 96% 30 0.0
12 02:55 E 3 0.75 Fog/Mist VV005 68.5 68.2 99% 30.01 0.0
12 02:35 E 3 1.00 Fog/Mist VV007 68.9 68.2 98% 30.01 0.0
12 02:15 E 5 3.50 Fog/Mist CLR 69.3 68.5 98% 30.01 0.0
12 01:55 E 6 2.50 Fog/Mist CLR 68.5 68.2 99% 30.01 0.0
12 01:35 E 6 10.00 Partly Cloudy SCT050 68.9 67.5 95% 30.02 0.0
12 01:15 Calm 0.25 Fog OVC050 70.5 68 92% 30.02 0.0
12 00:55 Calm 0.50 Fog BKN050 69.4 67.6 80.2 69.4 94% 30.02 0.0
12 00:35 Calm 0.75 Fog/Mist BKN050 70.5 67.8 91% 30.02 0.0
12 00:15 SE 3 0.50 Fog SCT037 BKN050 70 68 93% 30.02 0.0
11 23:55 E 3 2.50 Fog/Mist SCT046 70 67.8 93% 30.01 0.0
11 23:35 E 5 5.00 Fog/Mist SCT044 70.5 67.8 91% 30.01 0.0
11 23:15 Calm 0.25 Overcast with Haze OVC042 71.8 67.5 86% 30.01 0.0
11 22:55 Calm 3.00 Fog/Mist SCT040 72.5 67.5 84% 30.01 0.0
11 22:35 Calm 10.00 Fair CLR 72.9 67.3 83% 30 0.0
11 22:15 E 3 5.00 Fair with Haze CLR 73.4 67.3 81% 29.99 0.0
11 21:55 NE 5 10.00 Fair CLR 73.2 67.3 82% 29.98 0.0
11 21:35 NE 3 10.00 Fair CLR 74.1 67.5 80% 29.97 0.0
11 21:15 Calm 0.15 Sky Obscured with Haze VV000 74.5 67.5 79% 29.96 0.0
11 20:55 Calm 10.00 Fair CLR 75.2 67.6 77% 76 29.95 0.0
11 20:35 SE 6 10.00 Fair CLR 75.9 67.3 75% 77 29.95 0.0
11 20:15 E 8 10.00 Fair CLR 77.4 67.8 73% 79 29.94 0.0
11 19:55 E 9 10.00 Fair CLR 78.3 68.4 72% 80 29.94 0.0
11 19:35 E 9 10.00 Fair CLR 79 68.5 70% 81 29.93 0.0
11 19:15 E 9 10.00 Fair CLR 79.7 68 68% 82 29.94 0.0
11 18:55 E 10 10.00 Mostly Cloudy BKN070 BKN080 79.3 67.6 81.5 78.3 68% 82 29.94 0.0
11 18:35 E 9 10.00 Mostly Cloudy BKN070 BKN080 79.7 67.5 66% 82 29.95 0.0
11 17:55 SE 10 10.00 Fair CLR 80.2 68 66% 83 29.95 0.0
11 17:35 E 10 10.00 Fair CLR 79.7 67.8 67% 82 29.95 0.0
11 17:15 E 12 10.00 Fair CLR 80.6 67.6 65% 83 29.95 0.0
11 16:55 E 13 10.00 Fair CLR 80.4 68.4 67% 83 29.96 0.0
11 16:35 E 12 10.00 Partly Cloudy SCT049 SCT055 79.5 68.2 68% 82 29.96 0.0
11 16:15 E 14 10.00 Mostly Cloudy SCT033 SCT039 BKN055 79.9 68.9 69% 83 29.97 0.0
11 15:55 E 8 10.00 Overcast SCT027 BKN037 OVC043 78.6 68.2 70% 81 29.97 0.0
11 15:35 E 10 10.00 Overcast BKN027 BKN037 OVC046 78.8 68 70% 81 29.98 0.0
11 15:15 E 9 10.00 Overcast BKN030 OVC045 79 68.2 70% 81 29.99 0.0
11 14:55 E 8 10.00 Overcast OVC030 79 68 69% 81 29.99 0.0
11 14:35 E 9 10.00 Overcast BKN028 OVC034 79.2 67.8 68% 82 29.99 0.0
11 14:15 E 8 4.00 Overcast with Haze OVC028 79.7 67.8 67% 82 29.99 0.0
11 13:55 E 9 3.00 Overcast with Haze OVC028 79.2 67.3 67% 81 29.99 0.0
11 13:35 SE 8 2.00 Overcast with Haze OVC028 78.6 66.9 67% 81 29.99 0.0
11 13:15 SE 13 2.00 Overcast with Haze OVC028 79 66.9 67% 81 30 0.0
11 12:55 SE 10 1.75 Mostly Cloudy with Haze BKN028 BKN036 78.6 66.4 79 67.8 66% 81 30 0.0
11 12:35 SE 10 1.50 Sky Obscured with Haze VV007 79 66.2 65% 81 29.99 0.0
11 12:15 SE 9 0.25 Mostly Cloudy with Haze BKN028 78.3 65.3 65% 80 29.99 0.0
11 11:35 SE 9 0.25 Sky Obscured with Haze VV002 77.5 64.8 65% 79 29.99 0.0
11 11:15 SE 12 0.25 Sky Obscured with Haze VV002 77.4 64.4 64% 79 29.99 0.0
11 10:55 SE 12 0.75 Sky Obscured with Haze VV005 77 63.7 64% 79 29.99 0.0
11 10:35 SE 12 3.00 Partly Cloudy with Haze SCT080 77.4 63.9 63% 79 29.99 0.0
11 10:15 E 14 4.00 Partly Cloudy with Haze SCT080 77.9 63.9 62% 80 29.98 0.0
11 09:55 E 12 3.50 Fair with Haze CLR 77.5 64.2 64% 79 29.99 0.0
11 09:30 E 13 1.25 Sky Obscured with Haze VV007 76.6 63.3 64% 78 29.98 0.0
11 09:15 SE 13 1.00 Mostly Cloudy with Haze BKN080 76.5 63.1 64% 78 29.97 0.0
11 08:55 SE 12 0.50 Mostly Cloudy with Haze BKN080 75.6 62.8 65% 78 29.97 0.0
11 08:35 SE 10 0.15 Sky Obscured with Haze VV000 74.1 62.6 67% 29.97 0.0
11 08:15 SE 9 0.25 Sky Obscured with Haze VV002 72.1 63 73% 29.97 0.0
11 07:55 SE 7 0.75 Sky Obscured with Haze VV005 70.2 62.8 78% 29.97 0.0
11 07:35 E 6 3.50 Fair with Haze CLR 69.4 62.6 79% 29.97 0.0
11 07:15 E 7 5.00 Mostly Cloudy with Haze BKN041 68.5 61.9 79% 29.97 0.0
11 06:35 E 7 5.00 Partly Cloudy with Haze SCT110 67.1 61.2 81% 29.98 0.0
11 06:15 E 7 5.00 Fair with Haze CLR 66.9 61.2 82% 29.97 0.0
11 05:35 E 7 10.00 Fair CLR 67.1 61.7 83% 29.96 0.0
11 05:15 E 7 10.00 Mostly Cloudy BKN034 67.6 62.1 82% 29.96 0.0
11 04:55 E 6 0.00 Overcast OVC036 68.5 62.8 82% 29.97 0.0
11 04:35 E 3 10.00 Overcast OVC036 69.4 61 75% 29.97 0.0
11 04:15 Calm 10.00 Mostly Cloudy BKN034 69.1 61.7 77% 29.97 0.0
11 03:55 E 6 10.00 Fair CLR 68.9 61.3 77% 29.97 0.0
11 03:35 NE 3 10.00 Fair CLR 68.7 62.4 80% 29.97 0.0
11 03:15 Calm 10.00 Fair CLR 68.9 62.6 80% 29.97 0.0
11 02:55 E 6 10.00 Fair CLR 68.4 63 83% 29.96 0.0
11 02:35 E 5 10.00 Fair CLR 68.9 64.4 86% 29.97 0.0
11 02:15 E 3 10.00 Fair CLR 68.7 64 85% 29.97 0.0
11 01:55 Calm 10.00 Fair CLR 70.2 63.5 80% 29.97 0.0
11 01:35 Calm 10.00 Fair CLR 69.6 63.5 81% 29.97 0.0
11 01:15 E 3 10.00 Fair CLR 69.1 63.3 82% 29.97 0.0
11 00:55 E 3 10.00 Fair CLR 69.3 63 80.4 68.9 80% 29.97 0.0
11 00:35 E 5 10.00 Fair CLR 69.3 62.8 80% 29.96 0.0
11 00:15 E 3 10.00 Fair CLR 70 62.4 77% 29.96 0.0
10 23:35 E 6 10.00 Fair CLR 70.7 62.2 75% 29.96 0.0
10 23:15 E 6 10.00 Partly Cloudy SCT030 71.2 62.2 73% 29.96 0.0
10 22:55 E 3 10.00 Partly Cloudy SCT030 71.4 62.2 73% 29.96 0.0
10 22:35 E 5 10.00 Partly Cloudy SCT028 72.3 61 68% 29.96 0.0
10 22:15 E 6 10.00 Fair CLR 72.7 60.6 66% 29.95 0.0
10 21:55 E 7 10.00 Fair CLR 73 61 66% 29.94 0.0
10 21:35 E 5 10.00 Fair CLR 73.2 61.7 67% 29.94 0.0
10 21:15 E 6 10.00 Fair CLR 74.1 61.9 66% 29.94 0.0
10 20:55 E 7 10.00 Fair CLR 75 62.8 66% 77 29.93 0.0
10 20:35 E 7 10.00 Fair CLR 76.3 63 64% 78 29.93 0.0
10 20:15 E 9 10.00 Fair CLR 77.4 64.2 64% 79 29.93 0.0
10 19:55 E 9 10.00 Fair CLR 78.3 64.8 63% 80 29.93 0.0
10 19:35 E 8 10.00 Fair CLR 79 65.8 64% 81 29.93 0.0
10 19:15 E 9 10.00 Fair CLR 79.9 65.5 62% 82 29.93 0.0
10 18:55 E 9 10.00 Fair CLR 80.4 65.7 82.9 77.7 61% 82 29.93 0.0
10 18:35 E 7 10.00 Fair CLR 81.7 67.8 63% 84 29.92 0.0
10 18:15 E 9 10.00 Partly Cloudy SCT034 SCT041 80.2 66.4 63% 82 29.92 0.0
10 17:55 E 9 10.00 Partly Cloudy SCT032 81.3 66.7 61% 84 29.93 0.0
10 17:35 E 9 10.00 Partly Cloudy SCT034 81.1 66.6 61% 83 29.93 0.0
10 17:15 E 7 10.00 Partly Cloudy SCT032 80.8 66.9 63% 83 29.94 0.0
10 16:55 E 9 10.00 Partly Cloudy SCT036 SCT049 80.6 66.2 62% 83 29.94 0.0
10 16:35 E 8 10.00 Partly Cloudy SCT035 SCT047 SCT050 81.1 66.4 61% 83 29.95 0.0
10 16:15 NE 7 10.00 Mostly Cloudy BKN045 81.3 67.3 62% 84 29.95 0.0
10 15:55 E 7 10.00 Overcast SCT027 SCT034 OVC043 79.3 68.5 70% 82 29.96 0.0
Date Time (cdt) Wind (mph) Vis. (mi.) Weather Sky Cond. Air Dwpt Max. Min. Relative Humidity Wind Chill (°F) Heat Index (°F) altimeter (in) sea level (mb) 1 hr 3 hr 6 hr
6 hour
Temperature (ºF) Pressure Precipitation (in)